Comodoro Rivadavia, Argentina

10:29 PM America en Noviembre 16, 2018 (GMT +0000)
GEN. Enrique Mosconi International

Tiempo Historia de SAVC - Noviembre, 2018

Change the Weather History Date:

Viernes, Noviembre 9, 2018

  Actual Average Record
Temperature  
Temperatura media 51 ° F -  
Temperatura máxima 62 ° F 73 ° F 86 ° F (1999)
Temperatura mínima 40 ° F 51 ° F 37 ° F (2007)
Degree Days  
Grados día de calefacción 14    
Growing Degree Days 1 (Base 50)    
Moisture  
Punto de rocío 42 ° F    
Average Humidity 64    
Maximum Humidity 87    
Minimum Humidity 31    
Precipitación  
Precipitación 0.00 pul 0.02 pul - ()
Presión al nivel del mar  
Presión al nivel del mar 29.81 pul    
Viento  
Velocidad del viento 5 mph ()    
Velocidad máxima del viento 21 mph    
Max Gust Speed -    
Visibilidad 9.9 Millas    
Eventos      
Averages and records for this station are not official NWS values.
T = Trace of Precipitation, MM = Missing Value Source: Averaged Metar Reports

Daily Weather History Graph

Daily Weather History Graph

Search for Another Location

Airport or City:

Astronomía

Nov. 09, 2018 Salida Puesta
Hora real 5:55 AM -03 8:32 PM -03
Crepúsculo civil 5:22 AM -03 9:06 PM -03
Crepúsculo náutico 4:39 AM -03 9:49 PM -03
Crepúsculo astronómico 3:50 AM -03 10:38 PM -03
Luna 7:28 AM -03 (11/9) 10:39 PM -03 (11/9)
Horas de luz 15h 44m
Horas de luz
14h 36m
Creciente, 4% of the Moon is Illuminated
Nov 9
Creciente
Nov 15
Cuarto creciente
Nov 23
Luna llena
Nov 29
Cuarto menguante
Dic 7
Nueva

Hourly Weather History & Observations

Hora (-03) Temp. Punto de rocío Humedad Presión Visibilidad Wind Dir Velocidad del viento Velocidad de ráfagas Precip Eventos Condiciones
12:00 AM 50 ° F 42 ° F 65% 29.74 pul 19 mi Sin viento Sin viento - -   Nubes dispersas
12:00 AM 50.0 ° F 41.0 ° F 71% 29.77 pul - Sin viento Sin viento - N/A   Despejado
1:00 AM 48.2 ° F 41.0 ° F 76% 29.77 pul - Sin viento Sin viento - N/A   Despejado
2:00 AM 50.0 ° F 41.0 ° F 71% 29.77 pul - Sin viento Sin viento - N/A   Despejado
3:00 AM 46 ° F 41 ° F 76% 29.76 pul 19 mi Sin viento Sin viento - -   Parcialmente nublado
3:00 AM 46.4 ° F 41.0 ° F 81% 29.80 pul - Sin viento Sin viento - N/A   Despejado
4:00 AM 44.6 ° F 39.2 ° F 81% 29.83 pul 6.2 mi Sin viento Sin viento - N/A   Nubes dispersas
5:00 AM 42.8 ° F 39.2 ° F 87% 29.83 pul 6.2 mi Sin viento Sin viento - N/A   Nubes dispersas
6:00 AM 44 ° F 39 ° F 78% 29.81 pul 19 mi Sin viento Sin viento - -   Muy nublado
6:00 AM 42.8 ° F 39.2 ° F 87% 29.83 pul - Sin viento Sin viento - N/A   Despejado
7:00 AM 44.6 ° F 37.4 ° F 76% 29.86 pul - Sin viento Sin viento - N/A   Despejado
8:00 AM 51.8 ° F 35.6 ° F 54% 29.86 pul - Sin viento Sin viento - N/A   Despejado
9:00 AM 57 ° F 35 ° F 31% 29.83 pul 19 mi NE 10.4 mph - -   Parcialmente nublado
9:00 AM 57.2 ° F 35.6 ° F 44% 29.86 pul - NE 10.4 mph - N/A   Despejado
10:00 AM 57.2 ° F 41.0 ° F 55% 29.86 pul 6.2 mi ENE 16.1 mph - N/A   Parcialmente nublado
11:00 AM 59.0 ° F 42.8 ° F 55% 29.83 pul 6.2 mi ENE 17.3 mph - N/A   Parcialmente nublado
12:00 PM 58 ° F 42 ° F 45% 29.80 pul 12 mi ENE 20.7 mph - -   Bruma
12:00 PM 59.0 ° F 42.8 ° F 55% 29.83 pul 6.2 mi ENE 20.7 mph - N/A   Nubes dispersas
1:00 PM 57.2 ° F 42.8 ° F 59% 29.83 pul 6.2 mi ENE 17.3 mph - N/A   Nubes dispersas
2:00 PM 59.0 ° F 42.8 ° F 55% 29.80 pul 6.2 mi ENE 17.3 mph - N/A   Nubes dispersas
3:00 PM 60 ° F 41 ° F 39% 29.77 pul 16 mi NE 17.3 mph - -   Bruma
3:00 PM 60.8 ° F 41.0 ° F 48% 29.80 pul 6.2 mi NE 17.3 mph - N/A   Nubes dispersas
4:00 PM 60.8 ° F 44.6 ° F 55% 29.77 pul 6.2 mi ENE 17.3 mph - N/A   Nubes dispersas
5:00 PM 59.0 ° F 41.0 ° F 51% 29.77 pul 6.2 mi NE 16.1 mph - N/A   Nubes dispersas
6:00 PM 59 ° F 42 ° F 43% 29.75 pul 16 mi ENE 9.2 mph - -   Bruma
6:00 PM 59.0 ° F 42.8 ° F 55% 29.77 pul 6.2 mi ENE 9.2 mph - N/A   Nubes dispersas
7:00 PM 55.4 ° F 42.8 ° F 63% 29.80 pul 6.2 mi ESE 6.9 mph - N/A   Nubes dispersas
8:00 PM 55.4 ° F 46.4 ° F 72% 29.80 pul 6.2 mi SSE 1.2 mph - N/A   Muy nublado
9:00 PM 53 ° F 46 ° F 70% 29.78 pul 12 mi Sur 3.5 mph - -   Neblina
9:00 PM 53.6 ° F 46.4 ° F 77% 29.80 pul 6.2 mi Sur 3.5 mph - N/A   Muy nublado
10:00 PM 53.6 ° F 46.4 ° F 77% 29.83 pul - Sur 1.2 mph - N/A   Despejado
11:00 PM 51.8 ° F 46.4 ° F 82% 29.86 pul - Sur 1.2 mph - N/A   Despejado